Regional Weather Roundup
Issued by NWS

Home | Current Version | Previous Version | Text Only | Print | Product List | Glossary Off
Versions: 1 2 3 4 5 6 7 8 9 10 11 12 13 14 15 16 17 18 19 20 21 22 23 24 25 26 27 28 29 30 31 32 33 34 35 36 37 38 39 40 41 42 43 44 45 46 47 48 49 50

601
ASUS44 KJAN 170503
RWRMS

MISSISSIPPI HOURLY WEATHER ROUNDUP
NATIONAL WEATHER SERVICE JACKSON MS
1200 AM CDT THU APR 17 2014

NOTE: "FAIR: INDICATES FEW OR NO CLOUDS BELOW 12,000 FEET WITH NO
SIGNIFICANT WEATHER AND/OR OBSTRUCTIONS TO VISIBILITY.

MSZ001>002-007>008-010>013-018>021-025>028-034>036-170600-
NORTHWEST MISSISSIPPI

CITY           SKY/WX    TMP DP  RH WIND       PRES   REMARKS
CLARKSDALE       N/A     46  41  81 CALM      30.19R
CLEVELAND      FAIR      47  44  90 CALM      30.17R
GREENWOOD      CLEAR     46  40  79 E5        30.19R
GREENVILLE     CLEAR     46  43  89 CALM      30.16R
GRENADA        FAIR      41  37  87 CALM      30.19R
OLIVE BRANCH   CLEAR     48  32  53 SE6       30.18R
OXFORD         FAIR      45  36  70 CALM      30.20R
TUNICA         CLEAR     45  41  87 CALM      30.19R
$$

MSZ003>006-009-014>017-022>024-029>033-037>039-170600-
NORTHEAST MISSISSIPPI

CITY           SKY/WX    TMP DP  RH WIND       PRES   REMARKS
BELMONT        FAIR      46  37  73 SE3       30.21R
COLUMBUS AFB   PTCLDY    47  39  73 SE6       30.20R
CORINTH        FAIR      41  37  87 CALM      30.20R
GOLDN TRIANGLE PTCLDY    52  36  54 SE8       30.22R
STARKVILLE     FAIR      43  41  93 CALM      30.19S
TUPELO         PTCLDY    45  39  79 CALM      30.20R
$$

MSZ040-058-170600-
CENTRAL MISSISSIPPI

CITY           SKY/WX    TMP DP  RH WIND       PRES   REMARKS
JACKSON INTL   CLEAR     47  40  76 CALM      30.16R
JACKSON HAWKNS CLEAR     51  37  58 SE3       30.16R
MERIDIAN KEY   PTCLDY    46  42  86 CALM      30.18S
MERIDIAN NAS   PTCLDY    46  40  79 E3        30.19R
RAYMOND        FAIR      45  39  81 MISG      30.16R
VICKSBURG      CLEAR     53  47  79 CALM      30.16R
$$

MSZ059>079-170600-
SOUTH MISSISSIPPI

CITY           SKY/WX    TMP DP  RH WIND       PRES   REMARKS
BROOKHAVEN     FAIR      48  43  81 S7        30.17R
COLUMBIA       FAIR      46  43  87 MISG      30.17R
HATTIESBURG    CLEAR     46  43  89 S3        30.19R
MCCOMB         CLEAR     47  41  80 S5        30.16S
NATCHEZ        CLEAR     46  39  76 S3        30.15R
PINE BELT      CLEAR     45  39  81 CALM      30.18S
$$

MSZ080>082-170600-
COASTAL MISSISSIPPI

CITY           SKY/WX    TMP DP  RH WIND       PRES   REMARKS
BILOXI         CLEAR     52  49  89 NE2       30.17R
PASCAGOULA     CLEAR     47  46  97 CALM      30.16F
GULFPORT       CLEAR     50  46  86 N3        30.16S
$$



USA.gov is the U.S. government's official web portal to all federal, state and local government web resources and services.